Regional Weather Roundup
Issued by NWS

Home | Current Version | Previous Version | Text Only | Print | Product List | Glossary On
Versions: 1 2 3 4 5 6 7 8 9 10 11 12 13 14 15 16 17 18 19 20 21 22 23 24 25 26 27 28 29 30 31 32 33 34 35 36 37 38 39 40 41 42 43 44 45 46 47 48 49 50
000
ASUS44 KOUN 281310
RWROK

WEATHER ROUNDUP FOR OKLAHOMA
NATIONAL WEATHER SERVICE NORMAN OK
800 AM CDT TUE JUL 28 2015

NOTE: "FAIR" INDICATES FEW OR NO CLOUDS BELOW 12,000 FEET WITH NO
      SIGNIFICANT WEATHER AND/OR OBSTRUCTIONS TO VISIBILITY.

OKZ001>007-009>012-014-015-017-281400-
NORTHWEST OKLAHOMA AND THE PANHANDLE

CITY           SKY/WX    TMP DP  RH WIND       PRES   REMARKS
GAGE           SUNNY     78  64  61 S15       29.89S
GUYMON         PTSUNNY   77  63  61 SW13      29.92R
ENID/WOODRING  SUNNY     77  72  83 S7        29.89S
$$

OKZ016-021>023-033>039-044-045-281400-
SOUTHWEST OKLAHOMA

CITY           SKY/WX    TMP DP  RH WIND       PRES   REMARKS
LAWTON/REGL    SUNNY     79  68  69 S10       29.94R
LAWTON/FT SILL SUNNY     78  69  73 S10       29.93R
FREDERICK      SUNNY     80  68  66 S13       29.90R
CLINTON        SUNNY     79  65  62 S17       29.94S
HOBART         SUNNY     80  67  64 S16       29.93R
ALTUS AFB      SUNNY     78  66  67 SE9       29.92R
$$

OKZ018>020-024>031-281400-
CENTRAL OKLAHOMA

CITY           SKY/WX    TMP DP  RH WIND       PRES   REMARKS
OKLAHOMA CITY  SUNNY     77  70  79 S9        29.94R
OKC/WILEY POST SUNNY     80  68  66 S13       29.93S
OKC/TINKER AFB SUNNY     77  68  74 S12       29.94R
STILLWATER     SUNNY     80  69  69 S9        29.91S
GUTHRIE        SUNNY     80  69  69 MISG      29.91S
$$

OKZ008-013-054>072-281400-
NORTHEAST OKLAHOMA

CITY           SKY/WX    TMP DP  RH WIND       PRES   REMARKS
TULSA          SUNNY     83  72  69 S8        29.92R
TULSA/JONES    SUNNY     80  72  76 S5        29.93R
PONCA CITY     SUNNY     81  69  67 S7        29.90S
BARTLESVILLE   SUNNY     79  75  87 S5        29.93R
MUSKOGEE       SUNNY     79  74  84 SE6       29.96R
$$

OKZ032-040>043-046>053-073>077-281400-
SOUTH CENTRAL/SOUTHEAST OKLAHOMA

CITY           SKY/WX    TMP DP  RH WIND       PRES   REMARKS
ARDMORE/DWNTWN SUNNY     79  68  69 SW5       29.96R
MCALESTER      SUNNY     81  72  74 S3        29.96R
$$




USA.gov is the U.S. government's official web portal to all federal, state and local government web resources and services.